Stations météo

réclame
Mon MeteoGroup
Dunkerque, France (7010): Température de l'air & dewpoint: 14.11.2017 12:00:00 - 20.11.2017 12:00:00 (CET)Dunkerque, France (7010): Vitesse du vent & gusts: 14.11.2017 12:00:00 - 20.11.2017 12:00:00 (CET)Dunkerque, France (7010): Direction du vent: 14.11.2017 12:00:00 - 20.11.2017 12:00:00 (CET)Dunkerque, France (7010): reduced air pressure: 14.11.2017 12:00:00 - 20.11.2017 12:00:00 (CET)Dunkerque, France (7010): visibility: 14.11.2017 12:00:00 - 20.11.2017 12:00:00 (CET)Dunkerque, France (7010): Quantités de précipitations: 14.11.2017 12:00:00 - 20.11.2017 12:00:00 (CET)
Date & Time tt [°C] td [°C] ff [km/h] ff [knt] fx [km/h] fx [knt] dd ppp [hPa] vv [km] rr [mm]
20.11.2017 12:00:00 10,0 9,1 16 9 32 17 SSW 1016,2 - 0,2
20.11.2017 11:00:00 8,5 7,6 17 9 29 16 SSW 1017,0 - 0,4
20.11.2017 10:00:00 7,5 6,4 19 10 29 16 SSW 1017,5 - 0,6
20.11.2017 09:00:00 6,8 5,6 20 11 30 16 SSW 1018,0 - 0,6
20.11.2017 08:00:00 5,7 3,9 17 9 25 14 S 1018,7 - 0,0
20.11.2017 07:00:00 5,5 2,3 16 9 24 13 S 1019,7 18 0,0
20.11.2017 06:00:00 5,3 1,9 14 7 18 10 S 1020,2 - 0,0
20.11.2017 05:00:00 5,0 1,8 13 7 17 9 S 1020,7 - 0,0
20.11.2017 04:00:00 5,1 1,8 10 6 18 10 SSW 1021,2 - 0,0
20.11.2017 03:00:00 5,2 1,5 13 7 19 10 S 1021,8 - 0,0
20.11.2017 02:00:00 5,0 1,1 5 3 18 10 SW 1022,4 - 0,0
20.11.2017 01:00:00 5,2 1,3 12 6 19 10 SSW 1023,3 18 0,0
20.11.2017 00:00:00 5,5 1,4 11 6 19 11 SSW 1023,8 - 0,0
19.11.2017 23:00:00 6,1 1,4 8 4 13 7 SSW 1024,1 - 0,0
19.11.2017 22:00:00 6,9 1,4 8 4 23 12 SW 1024,1 - 0,0
19.11.2017 21:00:00 7,3 1,6 14 8 25 14 WNW 1023,8 - 0,0
19.11.2017 20:00:00 7,5 1,8 18 10 28 15 W 1023,7 - 0,0
19.11.2017 19:00:00 7,7 2,0 19 10 27 15 WNW 1023,8 18 0,0
19.11.2017 18:00:00 7,7 1,7 16 8 27 15 WNW 1023,5 - 0,0
19.11.2017 17:00:00 7,8 2,5 19 10 32 17 WNW 1023,2 - 0,0
19.11.2017 16:00:00 8,1 3,2 21 12 29 16 WNW 1023,1 - 0,0
19.11.2017 15:00:00 8,2 2,2 17 9 27 14 WNW 1023,2 - 0,0
19.11.2017 14:00:00 8,4 2,2 16 9 27 15 NW 1023,2 - 0,0
19.11.2017 13:00:00 8,2 1,8 19 10 30 16 NW 1023,0 - 0,0
19.11.2017 12:00:00 8,2 1,8 20 11 33 18 NW 1023,0 - 0,0
19.11.2017 11:00:00 8,1 2,1 19 11 33 18 NW 1022,5 - 0,0
19.11.2017 10:00:00 7,9 2,1 24 13 37 20 NW 1022,0 - 0,0
19.11.2017 09:00:00 7,5 0,9 23 12 41 22 NW 1021,5 - 0,0
19.11.2017 08:00:00 7,4 0,4 29 16 43 23 NW 1020,8 - 0,0
19.11.2017 07:00:00 7,4 0,1 30 16 45 24 NNW 1020,5 18 0,0
19.11.2017 06:00:00 7,6 1,0 30 16 46 25 NW 1020,2 - 0,0
19.11.2017 05:00:00 8,1 1,5 31 17 47 26 NW 1019,9 - 0,0
19.11.2017 04:00:00 8,7 1,4 32 17 53 28 NNW 1019,6 - 0,0
19.11.2017 03:00:00 9,0 1,9 29 15 45 25 NNW 1019,4 - 0,0
19.11.2017 02:00:00 9,2 3,6 29 16 45 24 NNW 1019,2 - 0,0
19.11.2017 01:00:00 9,6 4,2 29 16 46 25 NNW 1019,1 - 0,0
19.11.2017 00:00:00 9,6 4,6 26 14 44 24 NW 1019,0 - 0,0
18.11.2017 23:00:00 9,9 4,5 32 17 42 23 NW 1019,2 - 0,0
18.11.2017 22:00:00 9,9 4,9 25 14 41 22 NW 1019,0 - 0,0
18.11.2017 21:00:00 9,9 4,9 22 12 36 19 NW 1019,0 - 0,0
18.11.2017 20:00:00 10,2 4,3 22 12 35 19 WNW 1019,1 - 0,0
18.11.2017 19:00:00 9,7 4,5 21 11 39 21 WNW 1019,4 15 0,0
18.11.2017 18:00:00 9,5 5,3 20 11 39 21 WNW 1019,8 - 0,0
18.11.2017 17:00:00 9,6 7,4 28 15 56 30 WNW 1019,9 - 1,0
18.11.2017 16:00:00 9,6 8,4 39 21 50 27 W 1020,2 - 0,8
18.11.2017 15:00:00 9,1 7,2 24 13 49 27 W 1021,2 - 0,0
18.11.2017 14:00:00 9,9 6,1 33 18 48 26 W 1021,5 - 0,0
18.11.2017 13:00:00 9,9 5,9 32 17 51 28 W 1022,1 - 0,0
18.11.2017 12:00:00 9,9 5,5 29 16 44 24 W 1022,7 - 0,0
18.11.2017 11:00:00 9,6 4,6 27 15 41 22 W 1023,1 - 0,0
18.11.2017 10:00:00 8,8 2,4 28 15 42 23 W 1023,4 - 0,0
18.11.2017 09:00:00 8,0 0,9 27 15 41 22 W 1023,6 - 0,0
18.11.2017 08:00:00 7,7 0,6 29 16 56 30 WNW 1023,7 - 0,0
18.11.2017 07:00:00 7,8 0,0 32 18 51 28 WNW 1023,6 - 0,0
18.11.2017 06:00:00 8,1 0,3 29 15 43 23 W 1023,7 - 0,0
18.11.2017 05:00:00 7,8 0,5 25 13 38 21 W 1024,2 - 0,0
18.11.2017 04:00:00 8,0 0,5 26 14 39 21 W 1025,0 20 0,0
18.11.2017 03:00:00 7,5 1,8 10 5 30 16 SW 1025,6 - 0,0
18.11.2017 02:00:00 8,0 0,9 14 8 29 16 W 1026,2 - 0,0
18.11.2017 01:00:00 7,9 2,1 10 5 25 14 WSW 1026,7 20 0,0
18.11.2017 00:00:00 7,2 2,1 8 4 16 9 SW 1026,8 - 0,0
17.11.2017 23:00:00 8,1 0,1 14 7 23 12 WNW 1027,1 - 0,0
17.11.2017 22:00:00 8,1 0,3 13 7 20 11 WNW 1027,5 25 0,0
17.11.2017 21:00:00 8,3 -0,2 13 7 17 9 WNW 1027,6 - 0,0
17.11.2017 20:00:00 8,2 0,2 8 4 17 9 WNW 1027,4 - 0,0
17.11.2017 19:00:00 8,5 -0,5 8 4 14 7 WNW 1027,7 - 0,0
17.11.2017 18:00:00 8,8 0,2 9 5 16 9 NNW 1027,9 - 0,0
17.11.2017 17:00:00 8,9 -0,2 10 5 15 8 NNW 1028,1 - 0,0
17.11.2017 16:00:00 9,5 1,6 10 5 17 9 NNW 1028,3 - 0,0
17.11.2017 15:00:00 9,9 1,8 10 5 16 9 NW 1028,3 - 0,0
17.11.2017 14:00:00 9,8 1,9 12 7 17 9 NNW 1028,7 - 0,0
17.11.2017 13:00:00 9,8 2,6 13 7 18 10 NNW 1029,0 25 0,0
17.11.2017 12:00:00 10,4 2,7 10 5 17 9 N 1029,0 - 0,0
17.11.2017 11:00:00 10,3 2,6 8 4 14 7 N 1029,0 - 0,0
17.11.2017 10:00:00 10,3 1,6 7 4 12 7 N 1029,1 25 0,0
17.11.2017 09:00:00 9,5 1,6 8 4 20 11 N 1028,8 - 0,0
17.11.2017 08:00:00 9,2 1,4 8 4 16 9 NNE 1028,4 - 0,0
17.11.2017 07:00:00 9,4 2,0 12 7 20 11 NNE 1028,1 15 0,0
17.11.2017 06:00:00 9,9 2,7 16 9 25 14 NNE 1027,7 - 0,0
17.11.2017 05:00:00 10,0 2,6 19 10 29 16 NNE 1027,3 - 0,0
17.11.2017 04:00:00 10,3 2,6 17 9 27 15 NNE 1027,3 10 0,0
17.11.2017 03:00:00 10,4 4,1 21 11 30 16 NNE 1027,0 - 0,0
17.11.2017 02:00:00 10,7 4,8 21 11 29 16 NNE 1026,8 - 0,0
17.11.2017 01:00:00 10,9 5,6 21 11 31 17 NNE 1026,6 - 0,0
17.11.2017 00:00:00 11,0 6,1 22 12 31 17 N 1026,2 - 0,2
16.11.2017 23:00:00 10,6 7,1 16 9 38 20 NNE 1025,9 - 0,2
16.11.2017 22:00:00 10,4 8,5 23 13 35 19 NNE 1025,5 - 0,0
16.11.2017 21:00:00 11,9 8,9 17 9 28 15 NW 1024,8 - 0,0
16.11.2017 20:00:00 12,4 10,1 16 9 26 14 W 1024,1 - 0,0
16.11.2017 19:00:00 12,6 9,4 17 9 33 18 W 1023,7 - 0,0
16.11.2017 18:00:00 12,7 9,7 20 11 32 17 W 1023,2 - 0,0
16.11.2017 17:00:00 12,5 10,0 20 11 34 18 W 1023,1 - 0,0
16.11.2017 16:00:00 12,6 9,6 6 4 22 12 WSW 1022,8 10 0,0
16.11.2017 15:00:00 12,6 9,6 12 7 33 18 WSW 1022,5 - 0,0
16.11.2017 14:00:00 12,7 9,3 19 10 35 19 W 1022,7 - 0,0
16.11.2017 13:00:00 12,7 9,7 21 11 34 18 W 1023,0 12 0,0
16.11.2017 12:00:00 11,8 10,2 16 9 23 12 SSW 1023,2 - 0,0
16.11.2017 11:00:00 11,4 9,8 12 7 25 14 SSW 1023,2 - 0,0
16.11.2017 10:00:00 10,9 9,5 14 8 24 13 SSW 1023,2 - 0,0
16.11.2017 09:00:00 10,6 9,2 14 8 24 13 SSW 1022,9 - 0,0
16.11.2017 08:00:00 10,7 9,3 14 8 23 13 SSW 1022,4 - 0,0
16.11.2017 07:00:00 10,7 9,3 14 7 20 11 SSW 1022,1 10 0,0
16.11.2017 06:00:00 10,5 9,3 13 7 19 10 SSW 1022,0 - 0,0
16.11.2017 05:00:00 10,1 9,0 13 7 19 10 S 1022,3 - 0,0
16.11.2017 04:00:00 10,1 9,0 13 7 19 10 S 1022,6 - 0,0
16.11.2017 03:00:00 10,1 9,0 11 6 21 11 S 1023,2 - 0,0
16.11.2017 02:00:00 10,3 9,2 12 7 20 11 S 1023,2 - 0,0
16.11.2017 01:00:00 10,4 9,3 9 5 16 9 S 1023,6 - 0,0
16.11.2017 00:00:00 10,6 9,7 11 6 15 8 SSE 1023,8 - 0,2
15.11.2017 23:00:00 10,9 10,0 9 5 21 11 S 1024,0 - 0,4
15.11.2017 22:00:00 11,1 10,0 12 6 18 10 SSW 1024,2 6 0,4
15.11.2017 21:00:00 11,5 10,4 10 5 20 11 SSW 1024,5 - 0,6
15.11.2017 20:00:00 11,7 10,1 13 7 22 12 SSW 1024,4 - 0,0
15.11.2017 19:00:00 11,8 9,7 12 7 19 11 SSW 1024,3 15 0,0
15.11.2017 18:00:00 12,0 9,4 10 6 17 9 S 1024,3 - 0,0
15.11.2017 17:00:00 12,4 9,6 10 5 16 8 SSE 1024,3 - 0,0
15.11.2017 16:00:00 12,5 9,9 7 4 12 7 S 1024,7 - 0,0
15.11.2017 15:00:00 13,1 9,2 4 2 22 12 WNW 1024,7 - 0,0
15.11.2017 14:00:00 14,1 9,5 14 7 22 12 S 1024,4 - 0,0
15.11.2017 13:00:00 14,2 9,6 13 7 20 11 SSW 1024,8 - 0,0
15.11.2017 12:00:00 13,3 10,1 5 3 15 8 WSW 1025,1 - 0,0
15.11.2017 11:00:00 11,6 9,3 4 2 9 5 WSW 1025,6 - 0,0
15.11.2017 10:00:00 10,7 9,3 2 1 16 9 SW 1025,3 12 0,0
15.11.2017 09:00:00 10,5 9,4 10 6 18 10 SSW 1025,3 - 0,0
15.11.2017 08:00:00 10,6 9,4 13 7 19 10 SSW 1024,9 - 0,0
15.11.2017 07:00:00 11,2 9,9 10 5 22 12 SW 1024,5 15 0,0
15.11.2017 06:00:00 11,3 9,4 9 5 21 11 W 1024,3 - 0,0
15.11.2017 05:00:00 10,6 8,9 9 5 18 10 SSW 1024,2 - 0,0
15.11.2017 04:00:00 10,8 9,1 7 4 14 8 WSW 1024,3 - 0,0
15.11.2017 03:00:00 10,6 9,2 9 5 16 8 SSW 1024,6 - 0,0
15.11.2017 02:00:00 10,5 8,9 5 3 14 8 WSW 1024,6 - 0,0
15.11.2017 01:00:00 11,6 9,3 6 4 23 12 WSW 1024,6 - 0,0
15.11.2017 00:00:00 10,5 8,9 6 3 14 8 WSW 1024,6 - 0,0
14.11.2017 23:00:00 10,5 8,9 4 2 18 10 WSW 1024,6 - 0,0
14.11.2017 22:00:00 10,6 8,7 12 6 20 11 S 1024,5 15 0,0
14.11.2017 21:00:00 11,0 8,7 6 4 18 10 WSW 1024,7 - 0,0
14.11.2017 20:00:00 11,2 8,6 7 4 16 9 SW 1024,5 - 0,0
14.11.2017 19:00:00 10,9 8,3 8 4 19 10 SW 1024,3 - 0,0
14.11.2017 18:00:00 11,8 8,6 9 5 30 16 WSW 1024,1 - 0,0
14.11.2017 17:00:00 11,4 8,8 17 9 33 18 W 1023,9 - 0,0
14.11.2017 16:00:00 11,0 8,6 21 11 32 17 W 1024,0 - 0,0
14.11.2017 15:00:00 10,8 8,6 21 11 37 20 W 1023,9 - 0,0
14.11.2017 14:00:00 10,9 7,8 22 12 44 24 W 1024,1 - 0,0
14.11.2017 13:00:00 10,7 8,1 27 15 45 24 W 1024,3 - 0,0
14.11.2017 12:00:00 9,7 5,5 18 10 26 14 SSW 1024,6 - 0,0

tt = Température de l'air
td = dewpoint
ff = Vitesse du vent
fx = gusts
dd = Direction du vent
ppp = reduced air pressure
vv = visibility
rr = Quantités de précipitations

stations d'obs. à proximité